Niagara Falls, NY

2:42 PM EDT on April 22, 2018 (GMT -0400)
Niagara Falls International

Weather History for KIAG - June, 2012

Change the Weather History Date:

Saturday, June 2, 2012

  Actual Average Record
Temperature  
Mean Temperature 58 °F -  
Max Temperature 66 °F 68 °F 87 °F (2007)
Min Temperature 51 °F 48 °F 42 °F (1993)
Degree Days  
Heating Degree Days 6    
Growing Degree Days 8 (Base 50)    
Moisture  
Dew Point 47 °F    
Average Humidity 69    
Maximum Humidity 86    
Minimum Humidity 43    
Precipitation  
Precipitation 0.00 in - - ()
Sea Level Pressure  
Sea Level Pressure 29.67 in    
Wind  
Wind Speed 17 mph (SW)    
Max Wind Speed 22 mph    
Max Gust Speed 31 mph    
Visibility 10 miles    
Events Rain    
Averages and records for this station are not official NWS values.
T = Trace of Precipitation, MM = Missing Value Source: NWS Daily Summary

Daily Weather History Graph

Daily Weather History Graph

Search for Another Location

Airport or City:

Astronomy

Jun. 02, 2012 Rise Set
Actual Time 5:38 AM EDT 8:49 PM EDT
Civil Twilight 5:03 AM EDT 9:24 PM EDT
Nautical Twilight 4:19 AM EDT 10:09 PM EDT
Astronomical Twilight 3:25 AM EDT 11:03 PM EDT
Moon 7:01 PM EDT (6/2) 3:58 AM EDT (6/2)
Length of Visible Light 16h 20m
Length of Day
15h 11m
Waxing Gibbous, 95% of the Moon is Illuminated
Jun 2
Waxing Gibbous
Jun 4
Full
Jun 11
Last Quarter
Jun 19
New
Jun 26
First Quarter

Hourly Weather History & Observations

Time (EDT) Temp. Dew Point Humidity Pressure Visibility Wind Dir Wind Speed Gust Speed Precip Events Conditions
12:53 AM 57.0 °F 52.0 °F 83% 29.61 in 10.0 mi SW 15.0 mph 27.6 mph N/A   Overcast
1:53 AM 57.0 °F 51.1 °F 81% 29.61 in 10.0 mi SW 21.9 mph 31.1 mph N/A   Overcast
2:53 AM 55.0 °F 51.1 °F 86% 29.62 in 8.0 mi SW 20.7 mph 29.9 mph 0.00 in Rain Light Rain
3:12 AM 55.4 °F 50.0 °F 82% 29.62 in 10.0 mi SW 17.3 mph 24.2 mph 0.00 in   Overcast
3:53 AM 55.0 °F 48.9 °F 80% 29.62 in 10.0 mi SW 20.7 mph 26.5 mph 0.00 in   Overcast
4:53 AM 55.0 °F 48.0 °F 77% 29.62 in 10.0 mi SW 19.6 mph 29.9 mph N/A   Overcast
5:53 AM 54.0 °F 48.9 °F 83% 29.63 in 10.0 mi SW 13.8 mph - 0.00 in   Overcast
6:10 AM 55.4 °F 46.4 °F 72% 29.62 in 10.0 mi SW 15.0 mph 26.5 mph N/A   Mostly Cloudy
6:53 AM 55.0 °F 46.9 °F 74% 29.64 in 10.0 mi SW 16.1 mph 24.2 mph N/A   Overcast
7:02 AM 53.6 °F 46.4 °F 77% 29.63 in 10.0 mi SW 20.7 mph 26.5 mph N/A   Mostly Cloudy
7:21 AM 53.6 °F 46.4 °F 77% 29.64 in 10.0 mi WSW 15.0 mph 24.2 mph 0.00 in Rain Light Rain
7:53 AM 54.0 °F 48.0 °F 80% 29.67 in 10.0 mi WSW 20.7 mph 29.9 mph 0.00 in Rain Light Rain
8:14 AM 51.8 °F 46.4 °F 82% 29.66 in 7.0 mi SW 15.0 mph 27.6 mph 0.00 in   Mostly Cloudy
8:47 AM 53.6 °F 48.2 °F 82% 29.68 in 8.0 mi SW 15.0 mph 24.2 mph 0.00 in Rain Light Rain
8:53 AM 53.6 °F 48.2 °F 82% 29.68 in 8.0 mi SW 16.1 mph 25.3 mph N/A Rain Light Rain
8:59 AM 53.6 °F 48.2 °F 82% 29.68 in 8.0 mi SW 17.3 mph - N/A   Mostly Cloudy
9:38 AM 53.6 °F 44.6 °F 72% 29.69 in 10.0 mi WSW 19.6 mph 27.6 mph 0.00 in Rain Light Rain
9:48 AM 55.4 °F 44.6 °F 67% 29.69 in 10.0 mi WSW 20.7 mph 27.6 mph 0.00 in   Mostly Cloudy
9:53 AM 55.9 °F 45.0 °F 67% 29.69 in 10.0 mi WSW 16.1 mph 27.6 mph 0.00 in   Mostly Cloudy
10:53 AM 55.9 °F 44.1 °F 64% 29.70 in 10.0 mi SW 10.4 mph 21.9 mph N/A   Mostly Cloudy
11:11 AM 55.4 °F 44.6 °F 67% 29.69 in 10.0 mi SW 15.0 mph 23.0 mph 0.00 in Rain Light Rain
11:35 AM 53.6 °F 46.4 °F 77% 29.69 in 10.0 mi SW 13.8 mph 25.3 mph 0.00 in   Mostly Cloudy
11:53 AM 57.9 °F 48.0 °F 70% 29.70 in 10.0 mi SW 13.8 mph - 0.00 in   Mostly Cloudy
12:53 PM 57.0 °F 45.0 °F 64% 29.71 in 10.0 mi WSW 19.6 mph - N/A   Mostly Cloudy
1:53 PM 59.2 °F 45.3 °F 60% 29.71 in 10.0 mi SW 15.0 mph 21.9 mph N/A   Mostly Cloudy
2:53 PM 59.7 °F 47.1 °F 63% 29.71 in 10.0 mi WSW 15.0 mph - N/A   Mostly Cloudy
3:53 PM 64.2 °F 42.1 °F 44% 29.69 in 10.0 mi WSW 13.8 mph - N/A   Scattered Clouds
4:53 PM 64.6 °F 43.3 °F 46% 29.69 in 10.0 mi SW 16.1 mph - N/A   Scattered Clouds
5:53 PM 65.3 °F 42.1 °F 43% 29.68 in 10.0 mi SW 13.8 mph 20.7 mph N/A   Scattered Clouds
6:53 PM 66.7 °F 44.6 °F 45% 29.68 in 10.0 mi SW 13.8 mph - N/A   Mostly Cloudy
7:53 PM 66.2 °F 44.6 °F 46% 29.67 in 10.0 mi WSW 13.8 mph - N/A   Mostly Cloudy
8:53 PM 61.9 °F 44.2 °F 52% 29.66 in 10.0 mi SW 8.1 mph - N/A   Scattered Clouds
9:53 PM 61.7 °F 47.5 °F 60% 29.66 in 10.0 mi SW 11.5 mph - N/A   Mostly Cloudy
10:33 PM 62.6 °F 48.2 °F 59% 29.67 in 10.0 mi SW 11.5 mph - N/A Rain Light Rain
10:53 PM 61.9 °F 51.1 °F 68% 29.69 in 8.0 mi SW 13.8 mph 20.7 mph N/A Rain Light Rain
11:53 PM - - N/A% 29.68 in - North - - N/A   Unknown